Location: Newark
(41.6500°N, 71.4833°W)
Time: 09:23:14
(UTC+00:00)

Vanguard 2 - All Passes

Search period start: 29 January 2020 00:00
Search period end: 08 February 2020 00:00
Orbit: 553 x 2938 km, 32.9° (Epoch: 28 January)

Date Brightness Start Highest point End Pass type
(mag) Time Alt. Az. Time Alt. Az. Time Alt. Az.
29 Jan - 12:24:22 10° SSW 12:37:46 29° SSE 12:48:19 10° E daylight
29 Jan - 14:33:40 10° SW 14:48:23 47° SSE 14:58:03 10° E daylight
29 Jan - 16:45:54 10° WSW 16:58:20 52° S 17:05:51 10° ESE daylight
29 Jan - 18:58:43 10° W 19:06:47 31° SSW 19:12:08 10° SSE daylight
30 Jan - 10:36:53 10° SSE 10:45:06 15° SE 10:52:42 10° ESE visible
30 Jan - 12:40:52 10° SSW 12:55:34 35° SSE 13:06:47 10° E daylight
30 Jan - 14:51:16 10° WSW 15:06:16 52° S 15:15:57 10° E daylight
30 Jan - 17:03:56 10° W 17:16:07 50° SSW 17:23:31 10° ESE daylight
30 Jan - 19:17:05 10° W 19:24:14 25° SW 19:29:13 10° SSE daylight
31 Jan - 10:51:17 10° S 11:02:42 21° SE 11:12:57 10° ESE visible
31 Jan - 12:57:49 10° SW 13:13:23 42° SSE 13:24:59 10° E daylight
31 Jan - 15:09:04 10° WSW 15:24:10 55° S 15:33:46 10° ESE daylight
31 Jan - 17:22:02 10° W 17:33:50 46° SSW 17:41:06 10° SE daylight
31 Jan - 19:35:46 10° W 19:41:34 19° SW 19:45:55 10° S daylight
01 Feb - 11:06:55 10° SSW 11:20:20 27° SE 11:32:07 10° E visible
01 Feb - 13:15:03 10° SW 13:31:14 48° SSE 13:43:02 10° E daylight
01 Feb - 15:26:59 10° WSW 15:42:03 57° S 15:51:34 10° ESE daylight
01 Feb - 17:40:11 10° W 17:51:28 41° SSW 17:58:32 10° SE daylight
01 Feb - 19:55:09 10° WSW 19:58:47 13° SW 20:01:50 10° SSW daylight
02 Feb - 09:22:08 10° SSE 09:27:50 12° SE 09:33:29 10° ESE visible
02 Feb - 11:23:11 10° SSW 11:38:00 34° SSE 11:50:46 10° E visible
02 Feb - 13:32:33 10° WSW 13:49:08 53° SSE 14:00:59 10° E daylight
02 Feb - 15:44:58 10° W 15:59:54 56° S 16:09:17 10° ESE daylight
02 Feb - 17:58:26 10° W 18:08:59 35° SSW 18:15:49 10° SSE daylight
03 Feb - 09:35:16 10° S 09:45:16 18° SE 09:55:07 10° ESE visible
03 Feb - 11:39:56 10° SW 11:55:43 40° SSE 12:09:07 10° E daylight
03 Feb - 13:50:14 10° WSW 14:07:02 57° S 14:18:53 10° E daylight
03 Feb - 16:03:03 10° W 16:17:42 54° SSW 16:26:56 10° ESE daylight
03 Feb - 18:16:51 10° W 18:26:24 28° SW 18:32:52 10° SSE daylight
04 Feb - 09:50:24 10° S 10:02:43 24° SE 10:14:49 10° E visible
04 Feb - 11:57:01 10° SW 12:13:29 47° SSE 12:27:16 10° E daylight
04 Feb - 14:08:05 10° WSW 14:24:57 60° S 14:36:43 10° ESE daylight
04 Feb - 16:21:11 10° W 16:35:26 50° SSW 16:44:30 10° SE daylight
04 Feb - 18:35:32 10° W 18:43:41 22° SW 18:49:33 10° S daylight
05 Feb - 10:06:23 10° SSW 10:20:13 31° SE 10:33:45 10° E visible
05 Feb - 12:14:22 10° SW 12:31:19 52° SSE 12:45:18 10° E daylight
05 Feb - 14:26:01 10° WSW 14:42:52 60° S 14:54:31 10° ESE daylight
05 Feb - 16:39:22 10° W 16:53:03 44° SSW 17:01:54 10° SE daylight
05 Feb - 18:54:46 10° W 19:00:51 16° SW 19:05:37 10° SSW daylight
06 Feb - 08:20:53 10° SSE 08:27:59 14° SE 08:35:25 10° ESE visible
06 Feb - 10:22:54 10° SSW 10:37:47 37° SSE 10:52:18 10° E visible
06 Feb - 12:31:55 10° WSW 12:49:12 57° SSE 13:03:15 10° E daylight
06 Feb - 14:44:01 10° W 15:00:45 59° S 15:12:14 10° ESE daylight
06 Feb - 16:57:39 10° W 17:10:34 38° SSW 17:19:08 10° SSE daylight
06 Feb - 19:15:53 10° WSW 19:17:55 11° SW 19:19:47 10° SW daylight
07 Feb - 08:35:03 10° S 08:45:15 20° SE 08:56:11 10° E visible
07 Feb - 10:39:48 10° SW 10:55:25 44° SSE 11:10:36 10° E visible
07 Feb - 12:49:39 10° WSW 13:07:07 61° S 13:21:10 10° E daylight
07 Feb - 15:02:06 10° W 15:18:34 56° SSW 15:29:52 10° ESE daylight
07 Feb - 17:16:05 10° W 17:27:57 31° SW 17:36:08 10° SSE daylight
